CZ-4 DEB, 26265

Orbit data source: Space-Track

CZ-4 DEB, 26265 is space debris in SSO originally from a launch on Thu, 14 Oct 1999 UTC launched from the Taiyaun Space Center, China (TSC). Debris objects in space refer to the collection of defunct objects orbiting the Earth. Examples of debris include non-operational satellites, rocket bodies, and fragments generated from explosions, collisions, or faulty payload assembly.

Loading next visibility...
Identifier
26265, 1999-057FB
Orbit
SSO
Country
Flag of CNCN / PRC
Related business
Manufacturer
Unknown
Mission
Spacecraft
Bus & Motor
Unknown
Mass
Unknown
Launch date (UTC)
1999-10-14 (26 years ago)
Launch vehicle
Unknown
Launch site
Taiyaun Space Center, China (TSC)
Object type
Payload
Rocket body
Debris
Shape & HBR
Unknown shape, 0.1 m
Radar Cross Section
Small (<0.1 m²)

Expand to show TLE details & history
Last TLE update: 1 day ago

TLE from 1 day ago
0 CZ-4 DEB
1 26265U 99057FB  25348.74953484  .00001101  00000-0  32371-3 0  9999
2 26265  98.6592  47.5102 0096466  29.6220  85.5995 14.43135433348202
Epoch: 2025-12-14T17:59Z
TLE epoch observation values (Epoch: 2025-12-14T17:59:19.810Z)
Latitude
62.479°
Longitude
-109.07872°
Altitude
754.235 km
Speed
7.486 km/s
True Right ascension
16h 17m 38s
True Declination
62° 20' 16"
Sunlit
Object was in daylight at epoch
Visualization orbit readout
Latitude
Unknown
Longitude
Unknown
Altitude
Unknown
Speed
Unknown
Apparent Right ascension
Unknown
Apparent Declination
Unknown
Sunlit
N/A
Visualization observer readout
Local Sidereal Time
17:46:51
Azimuth
Unknown
Elevation
Unknown
Doppler factor
Unknown
Orbital elements
Apogee altitude
813.999 km
Perigee altitude
676.566 km
Semi-major axis
7,123.42 km
Eccentricity
0.00965
Inclination
98.6592°
RAAN
47.5102°
Arg. of periapsis
29.622°
True anomaly
86.70261°
Mean anomaly
85.5995°
Eccentric anomaly
86.15096°
Mean motion
3.61003 °/min
Orbital period
99.72 mins
BSTAR
0.00032371
Loading maneuver chart data...
Computing Atmospheric mass density...

Documentation

Showing up to 5 results
|